Location: Rio Negrinho
(26.2394°S, 49.4999°W)
Time: 02:42:03
(UTC+00:00)

SEDSat Delta rocket - Pass Details

Date: 06 October 2020
Orbit: 533 x 1000 km, 31.4° (Epoch: 20 October)

Event Time Altitude Azimuth Distance (km) Brightness Sun altitude
Rises 21:36:03 0° 283° (WNW) 3,604 8.5 -4.3°
Reaches altitude 10° 21:38:50 10° 281° (W) 2,607 7.7 -4.9°
Maximum altitude 21:45:06 73° 196° (SSW) 878 3.9 -6.3°
Drops below altitude 10° 21:50:36 10° 111° (ESE) 2,295 5.5 -7.5°
Enters shadow 21:51:37 - 110° (ESE) 2,667 5.8 -7.7°
